Regional Weather Roundup
Issued by NWS

Home | Current Version | Previous Version | Graphics & Text | Print | Product List | Glossary On
Versions: 1 2 3 4 5 6 7 8 9 10 11 12 13 14 15 16 17 18 19 20 21 22 23 24 25 26 27 28 29 30 31 32 33 34 35 36 37 38 39 40 41 42 43 44 45 46 47 48 49 50
861
ASUS45 KCYS 050310
RWRWY

WYOMING REGIONAL WEATHER ROUNDUP
NATIONAL WEATHER SERVICE CHEYENNE WY
800 PM MST SUN DEC 04 2016

NOTE:  "FAIR" INDICATES FEW OR NO CLOUDS BELOW 12,000 FEET
WITH NO SIGNIFICANT WEATHER AND/OR OBSTRUCTIONS TO VISIBILITY.

WYZ001-050400-
YELLOWSTONE NATIONAL PARK

CITY           SKY/WX    TMP DP  RH WIND       PRES   REMARKS
LK YELLOWSTONE   N/A     25  23  92 W10G17    29.57F WCI  15
W YELLOWSTONE  NOT AVBL

$$
WYZ002>013-054>058-071-098>099-050400-
NORTHERN WYOMING

CITY           SKY/WX    TMP DP  RH WIND       PRES   REMARKS
JACKSON        CLOUDY    28  27  93 S25G31    29.63F WCI  14
CODY           CLOUDY    33  26  75 S9        29.53F WCI  25
GREYBULL       CLOUDY    31  20  63 CALM      29.54F
WORLAND        FAIR      26  21  81 CALM      29.53F
SHERIDAN       CLOUDY    32  23  69 CALM      29.53S
BUFFALO        FAIR      40  17  39 W13       29.52F WCI  32
GILLETTE       CLOUDY    40  22  48 SW18      29.52F WCI  31
HULETT         CLOUDY    36  21  55 SW3       29.55F
NEWCASTLE      FAIR      36  21  55 SE12      29.60F WCI  27

$$
WYZ014>020-022>026-101>103-050400-
CENTRAL WYOMING

CITY           SKY/WX    TMP DP  RH WIND       PRES   REMARKS
BIG PINEY      CLOUDY    30  23  75 W21G26    29.73F WCI  17
PINEDALE       CLOUDY    30  23  74 SW16      29.72F WCI  19
DUBOIS         CLOUDY    32  19  59 W33G40    29.54F WCI  17
LANDER         FAIR      37  22  54 W25G38    29.58S WCI  25
RIVERTON       FAIR      38  21  50 SW22G29   29.58F WCI  27
CASPER         FAIR      38  18  44 SW22G30   29.62F WCI  27
DOUGLAS        FAIR      41  18  39 W24G37    29.60S

$$
WYZ021-027>030-104>119-050400-
SOUTHERN WYOMING

CITY           SKY/WX    TMP DP  RH WIND       PRES   REMARKS
EVANSTON       MOCLDY    31  23  72 SW9       29.83F WCI  23
KEMMERER         N/A     32  23  69 SW23      29.79F WCI  19
FORT BRIDGER   MOCLDY    33  27  79 SW20      29.84F WCI  21
ROCK SPRINGS   FAIR      35  21  56 SW22G30   29.79F WCI  23
DIXON          CLOUDY    35  17  49 W3        29.89S
RAWLINS        CLOUDY    32  16  51 SW20G26   29.78F WCI  20
SARATOGA       MOCLDY    34  19  55 SW23G30   29.79F WCI  22
LARAMIE        MOCLDY    33  15  47 S20G31    29.78F WCI  21
CHEYENNE       FAIR      40  15  36 S13       29.73S WCI  32
TORRINGTON     FAIR      48  18  30 W22G31    29.64F
PINE BLUFFS    FAIR      34  18  51 S12       29.74S WCI  25

$$




USA.gov is the U.S. government's official web portal to all federal, state and local government web resources and services.